Regional Weather Roundup
Issued by NWS New Orleans/Baton Rouge, LA

Home | Current Version | Previous Version | Text Only | Print | Product List | Glossary On
Versions: 1 2 3 4 5 6 7 8 9 10 11 12 13 14 15 16 17 18 19 20 21 22 23 24 25 26 27 28 29 30 31 32 33 34 35 36 37 38 39 40 41 42 43 44 45 46 47 48 49 50
137
ASUS44 KLIX 171305
RWRLIX
NEW ORLEANS REGIONAL WEATHER ROUNDUP
NATIONAL WEATHER SERVICE NEW ORLEANS LA
800 AM CDT WED SEP 17 2014

NOTE: "FAIR" INDICATES FEW OR NO CLOUDS BELOW 12,000 FEET WITH NO
      SIGNIFICANT WEATHER AND/OR OBSTRUCTIONS TO VISIBILITY.
      SKY/WX - SKY CONDITION AND SIGNIFICANT WEATHER.
      TMP - AIR TEMPERATURE.     DP    - DEWPOINT TEMPERATURE.
      RH  - RELATIVE HUMIDITY.   PRES  - PRESSURE.
      HI  - HEAT INDEX.          WCI   - WIND CHILL INDEX.

*  THESE STATIONS ARE NOT NWS OR FAA STATIONS AND ARE NOT UNDER
   NWS QUALITY CONTROL.

LAZ038-040-048-061>063-065>067-069-171400-
SOUTHEAST LOUISIANA

CITY           SKY/WX    TMP DP  RH WIND       PRES   REMARKS
N.O. AUDUBON     N/A     79  76  89 MISG        N/A
N.O. INTL ARPT MOSUNNY   77  73  87 CALM      29.97R
N.O. LAKEFRONT SUNNY     80  72  76 NE3       29.98R
N.O. DOWNTOWN*   N/A     79  70  73 CALM      29.98R
SLIDELL        SUNNY     72  70  93 CALM      29.98R
BATON ROUGE    SUNNY     73  71  93 CALM      29.98R FOG
BOOTHVILLE     MOSUNNY   78  73  84 E7        29.97S
BELLE CHASSE   PTSUNNY   77  73  87 CALM      29.97R
BOGALUSA*      FOG       73  70  89 CALM      29.99R VSB 1/2
GALLIANO*      NOT AVBL
NEW ROADS*     CLOUDY    72  72  99 W3        29.99R FOG
GONZALES*        N/A     73  73 100 CALM      29.98R FOG
HAMMOND*       FOG       73  70  88 CALM      30.00R VSB 1/2
HOUMA*         MOSUNNY   73  70  88 N3        29.98R
PORT FOURCHON* SUNNY     79  75  89 NE7       30.00

$$

MSZ070-080>082-171400-
SOUTHERN MISSISSIPPI

CITY           SKY/WX    TMP DP  RH WIND       PRES   REMARKS
MCCOMB         CLOUDY    72  70  93 N6        29.98S FOG
GULFPORT       PTSUNNY   73  71  93 CALM      29.96S
BILOXI         PTSUNNY   73  71  93 NE3       29.97R
PASCAGOULA     PTSUNNY   73  71  93 CALM      29.97R
STENNIS ARPT*  SUNNY    N/A N/A N/A CALM      29.98R FOG

$$

COASTAL OBSERVATIONS
LAKE AND NEARSHORE STATIONS

STATION/POSITION TIME  TEMP    WIND        PRES    WAVE
                       AIR SEA DIR/SP/G            HT/PER
                 (UTC) (F)     (DEG/KT/KT) (MB)    (FT/S)
PASCAGOULA       1300   74     360/  2/  3 1014.3
WAVELAND YACHT   1300   75     280/  3/  3 1014.3
GRAND ISLE       1300   80 86   50/  4/  6 1015.5
SOUTHWEST PASS   1300   79 90  320/  4/  7 1015.0
NEW CANAL        1300   79 81   CALM  /  1 1015.3
SHELL BEACH      1300   80 80   30/  4/  5 1014.7

OFFSHORE STATIONS

STATION/POSITION TIME  TEMP    WIND        PRES    WAVE
                       AIR SEA DIR/SP/G            HT/PER
                 (UTC) (F)     (DEG/KT/KT) (MB)    (FT/S)
64 S DAUPHIN ISL 1207   82 85   30/  4/  6 1015.0    2/ 5

$$




USA.gov is the U.S. government's official web portal to all federal, state and local government web resources and services.